Aérodrome :
LOGIN :

S'inscrire | Disclaimer

   EN    FR    IT 

 










Légende :    VFR   VFR Marginal   IFR   IFR Intensif   IFR Très Intensif
Visi : 
Plafond : 
>= 8 km
>= 3000ft
5 à 8 km
1000 à 3000 ft
1500m à 5 km
500 à 1000 ft
800 à 1500m
200 à 500 ft
< 800m
< 200 ft
Symboles :   Orages  Brouillard  Fortes neiges  Fortes précipitations  Vent > 20 kt
SIGMETs :   Divers  Orages  Givrage  Turbulence  Onde Orograph.  Cendres Volcan.







- Altitude de l'aérodrome : 665 ft
- Code IATA : NOC


EIKN - Connaught / Knock- Ireland West

DERNIER METAR :
  • 221830Z 17004KT 130V220 9999 FEW016 BKN220 11/09 Q1012 NOSIG

METARs EXPIRÉS :
  • 221800Z 21002KT 9999 FEW016 SCT022 BKN220 12/09 Q1012 NOSIG
  • 221730Z 22002KT 9999 FEW016 BKN220 13/09 Q1012 NOSIG
  • 221700Z 27004KT 9999 FEW016 BKN220 12/08 Q1012 NOSIG
  • 221630Z 26006KT 9999 FEW016 BKN026 13/08 Q1012 NOSIG
  • 221600Z 27007KT 9999 FEW016 BKN220 14/08 Q1012 NOSIG

TAF TAF EIKN
Valide du 22 à 18h jusqu'au 23 à 18h UTC


221700Z 2218/2318 24008KT 9999 FEW017 SCT025
BECMG 2218/2220 18007KT
BECMG 2222/2224 15013KT 5000 BR SCT005 BKN010
TEMPO 2302/2308 2000 BKN003
BECMG 2307/2309 17022G33KT
BECMG 2309/2311 9999 SCT010 BKN016
Pas de NOTAMs connus pour ce terrain.



MET'MAP, la Météo Aéronautique d'un coup d'oeil ! - Copyright ORBIFLY Décembre 2007 - Disclaimer

ORBIFLY MET'MAP TEAM :

Programmation & Développement : Alexandra Zaïnal
Conception & Développement : Baudouin d'Aumeries
Co-Programmation & Développement : Marc-Olivier Méhu
Soutien technique & logistique : Manuel Goepfert

Contact : metmap@orbifly.com




SOURCES & CREDITS :

   NOAA